Rbgn^[z[y[W
メイン
   新天体発見情報
     Comet P/2021 R5 (Rankin)
投稿するにはまず登録を

フラット表示 前のトピック | 次のトピック
投稿者 スレッド
佐藤裕久
投稿日時: 2021-9-27 13:47
モデレータ
登録日: 2005-6-12
居住地: 日本
投稿: 2636
オンライン
Comet P/2021 R5 (Rankin)

David Rankin の通報によると、9月9.3日UT、Mt Lemmon 1.5-m 反射望遠鏡で得たCCD画像から彗星を
発見した。
異常と判定されなかった一夜の観測は、その後小惑星センターの"isolated tracklet file"で確認さ
れた。観測は、9月5.4日UT (光度は19.9-20.1等)、ハワイ HaleakalaのPan-STARRS2 1.8-m Ritchey-
Chretien 反射望遠鏡と9月7.5日(光度は19.4-19.61等)、ハワイ Mauna Loaの小惑星地球衝突最終警報
システム(ATLAS)調査プログラムであった。R. Weryk (西オンタリオ大学,物理および天文学科)は、
9月5日、1".2のシーイングで得たPan-STARRS2観測の4枚の45秒w-バンドサーベイ画像から、1".9(半値
全幅:FWHM)の集光したコマが見えるが尾はないと彗星状の外観を書き込んだ。
小惑星センターのPCCP webpageに公表後、吉本勝己氏(山口県熊毛郡平生町, 9月9.7日UT, 60秒露出
19枚のスタック, 0.20-m f/8 反射望遠鏡: 全光度19.3等で約14"のコマが見える。9月9.4日, 60秒露出
10枚のスタック, 0.50-m f/6.8 反射望遠鏡, Mayhill近郊, ニューメキシコ州, 米国, 遠隔操作: 全光
度は19.4等で15"のこじんまりとしたコマが見え、南西に伸びている)や佐藤英貴氏(東京都文京区, 9月
9.43日, 60秒露出12枚のスタック, 0.51-m f/6.8 アストログラフ, Mayhill近郊, ニューメキシコ州, 
米国, 遠隔操作: 強く集光した12"のコマが見え、p.a. 150-300°に向かってに15"の扇のような尾が
見える。6".5の円形範囲で測定した光度は18.8 等であった)らCCD位置観測者によって彗星状と観測さ
れた。

彗星機能の報告は次の通り、

OC   Date        Reporter           Coma    Tail    PA          Exposures
F52  2021-09-05  R. Weryk           0".7                          4x45s
246  2021-09-09  M. Tichy           5"
P87  2021-09-09  K. Yoshimoto      14"                           19x60s
H06  2021-09-09  H. Sato           12"      15"    150-200       12x60s
246  2021-09-09  M. Tichy           5"
G40  2021-09-10  N. Paul            8".4                         34x50s

発見位置は次のとおり、

     2021 UT             R.A. (2000) Decl.       Mag.   Observer
     Sept. 9.28644    0 34 13.28   +10 32 39.6   19.3   Rankin
           9.29208    0 34 13.13   +10 32 38.3   19.2     "
           9.29865    0 34 12.96   +10 32 36.9   19.3     "
           9.30527    0 34 12.78   +10 32 35.6   19.2     "
           9.38955    0 34 10.57   +10 32 18.1   19.4     "
           9.39600    0 34 10.39   +10 32 16.9   19.4     "
           9.40265    0 34 10.24   +10 32 15.5   19.3     "

MPCの楕円軌道要素、位置推算表は次のとおり、

Orbital elements:
    P/2021 R5 (Rankin)                                                          
Epoch 2022 Jan. 21.0 TT = JDT 2459600.5                                         
T 2022 Jan.  9.97761 TT                                 Rudenko                 
q   3.3257695            (2000.0)            P               Q                  
n   0.09374491     Peri.  166.93060     +0.89035656     -0.44672396             
a   4.7992229      Node   219.97941     +0.40444691     +0.86464469             
e   0.3070192      Incl.    7.85106     +0.20901651     +0.22984182             
P  10.5                                                                         
From 66 observations 2021 June 22-Sept. 11, mean residual 0".4.                 
                                                                                
    P/2021 R5 (Rankin)                                                          
Epoch 2032 July 27.0 TT = JDT 2463440.5                                         
T 2032 July 16.31365 TT                                 Rudenko                 
q   3.3248763            (2000.0)            P               Q                  
n   0.09376101     Peri.  167.29473     +0.88738368     -0.45259728             
a   4.7986733      Node   219.99388     +0.41014033     +0.86194778             
e   0.3071259      Incl.    7.85022     +0.21055907     +0.22847697             
P  10.5                                                                         
From 66 observations 2021 June 22-Sept. 11, mean residual 0".4.                 
                                                                                
    P/2021 R5 (Rankin)                                                          
Epoch 2021 July 5.0 TT = JDT 2459400.5                                          
T 2022 Jan.  9.55990 TT                                 Rudenko                 
q   3.3259815            (2000.0)            P               Q                  
n   0.09355352     Peri.  166.83814     +0.89091244     -0.44561626             
a   4.8057660      Node   220.00033     +0.40335464     +0.86512511             
e   0.3079186      Incl.    7.84674     +0.20875839     +0.23018404             
P  10.5                                                                         
From 66 observations 2021 June 22-Sept. 11, mean residual 0".4.                 
                                                                                
Ephemeris:
Date    TT    R. A. (2000) Decl.     Delta      r    Elong.  Phase   m1
2021 08 12    00 40 06.0 +11 15 53   2.7291  3.4167   125.3    14.0  19.5
...
2021 08 27    00 38 32.9 +11 06 34   2.5633  3.3999   140.0    11.0  19.4
...
2021 09 04    00 36 14.4 +10 49 00   2.4923  3.3916   148.2     9.0  19.3
...
2021 09 10    00 33 55.2 +10 30 12   2.4486  3.3857   154.5     7.3  19.2
2021 09 11    00 33 29.5 +10 26 38   2.4422  3.3848   155.6     7.1  19.2
2021 09 12    00 33 03.1 +10 22 56   2.4360  3.3838   156.7     6.8  19.2
...
2021 09 18    00 30 12.8 +09 58 21   2.4044  3.3782   163.0     5.0  19.2
...
2021 09 26    00 26 02.3 +09 20 03   2.3774  3.3712   170.9     2.7  19.2
...
2021 10 11    00 17 59.8 +07 57 43   2.3756  3.3594   168.3     3.4  19.1

(MPEC 2021-R257、CBET 5035)

フラット表示 前のトピック | 次のトピック

題名 投稿者 日時
 » Comet P/2021 R5 (Rankin) 佐藤裕久 2021-9-27 13:47

投稿するにはまず登録を
 
© 1999 Tsutomu Seki.